EA3HMJ Weather Reports


time (UTC)temp
C
wind
direction
speed
KPH
gust
KPH
rain 1hr
cm
rain 24hr
cm
rain mn
cm
humidity
%
barometer
mb
20260507224516 -17 0.0 0.0 0.00 0.00 0.00 1013.1
20260507223612 -17 0.0 0.0 0.00 0.00 0.00 1013.1
20260507222606 -17 0.0 0.0 0.00 0.00 0.00 1013.3
20260507221621 -17 0.0 0.0 0.00 0.00 0.00 1013.3
20260507220556 -17 0.0 0.0 0.00 0.00 0.00 1013.2
20260507215611 -17 0.0 0.0 0.00 0.00 0.00 1013.3
20260507214547 -17 0.0 0.0 0.00 0.00 0.00 1013.2
20260507213542 -17 0.0 0.0 0.00 0.00 0.00 1013.4
20260507212538 -17 0.0 0.0 0.00 0.00 0.00 1013.3
20260507211533 -17 0.0 0.0 0.00 0.00 0.00 1013.2
20260507210529 -17 0.0 0.0 0.00 0.00 0.00 1013.2
20260507205525 -17 0.0 0.0 0.00 0.00 0.00 1013.2
20260507204518 -17 0.0 0.0 0.00 0.00 0.00 1013.1
20260507203614 -17 0.0 0.0 0.00 0.00 0.00 1013.2
20260507202608 -17 0.0 0.0 0.00 0.00 0.00 1013.0
20260507201602 -17 0.0 0.0 0.00 0.00 0.00 1013.0
20260507200600 -17 0.0 0.0 0.00 0.00 0.00 1013.0
20260507195553 -17 0.0 0.0 0.00 0.00 0.00 1012.8
20260507194549 -17 0.0 0.0 0.00 0.00 0.00 1012.6
20260507193544 -17 0.0 0.0 0.00 0.00 0.00 1012.3
20260507192540 -17 0.0 0.0 0.00 0.00 0.00 1012.1
20260507191537 -17 0.0 0.0 0.00 0.00 0.00 1012.0
20260507190533 -17 0.0 0.0 0.00 0.00 0.00 1012.0
20260507185527 -17 0.0 0.0 0.00 0.00 0.00 1012.0
20260507184542 -17 0.0 0.0 0.00 0.00 0.00 1011.8
20260507183516 -17 0.0 0.0 0.00 0.00 0.00 1011.6
20260507182610 -17 0.0 0.0 0.00 0.00 0.00 1011.6
20260507181628 -17 315 3.2 9.7 0.00 0.00 0.00 1 1011.5
20260507180622 -17 315 3.2 9.7 0.00 0.00 0.00 1 1011.4
20260507175557 -17 315 3.2 9.7 0.00 0.00 0.00 1 1011.4
20260507174552 -17 315 3.2 9.7 0.00 0.00 0.00 1 1011.3
20260507173545 -17 315 4.8 12.9 0.00 0.00 0.00 1 1011.2
20260507172600 -17 315 3.2 6.4 0.00 0.00 0.00 1 1011.2
20260507171535 -17 315 3.2 14.5 0.00 0.00 0.00 1 1011.0
20260507170529 -17 315 6.4 17.7 0.00 0.00 0.00 1 1011.0
20260507165545 -17 315 6.4 11.3 0.00 0.00 0.00 1 1011.0
20260507164519 -17 315 1.6 6.4 0.00 0.00 0.00 1 1010.9
20260507163615 -17 315 3.2 11.3 0.00 0.00 0.00 1 1010.9
20260507162611 -17 315 3.2 6.4 0.00 0.00 0.00 1 1010.8
20260507161624 -17 315 4.8 11.3 0.00 0.00 0.00 1 1010.8
20260507160601 -17 315 4.8 17.7 0.00 0.00 0.00 1 1010.9
20260507155556 -17 315 4.8 14.5 0.00 0.00 0.00 1 1010.9
20260507154551 -17 315 4.8 12.9 0.00 0.00 0.00 1 1011.0
20260507153545 -17 315 6.4 14.5 0.00 0.00 0.00 1 1011.1
20260507152540 -17 315 6.4 12.9 0.00 0.00 0.00 1 1010.9
20260507151536 -17 315 4.8 14.5 0.00 0.00 0.00 1 1010.9
20260507150528 -17 315 6.4 20.9 0.00 0.00 0.00 1 1011.0
20260507145524 -17 315 4.8 11.3 0.00 0.00 0.00 1 1011.1
20260507144517 -17 315 4.8 14.5 0.00 0.00 0.00 1 1011.2
20260507143613 -17 315 6.4 17.7 0.00 0.00 0.00 1 1011.3
20260507142609 -17 315 6.4 17.7 0.00 0.00 0.00 1 1011.5
20260507141622 -17 315 6.4 17.7 0.00 0.00 0.00 1 1011.5
20260507140558 -17 315 6.4 12.9 0.00 0.00 0.00 1 1011.6
20260507135554 -17 315 4.8 12.9 0.00 0.00 0.00 1 1011.7
20260507134548 -17 315 8.0 17.7 0.00 0.00 0.00 1 1011.9
20260507133603 -17 315 6.4 24.1 0.00 0.00 0.00 1 1011.8
20260507132558 -17 315 8.0 17.7 0.00 0.00 0.00 1 1011.7
20260507131533 -17 315 8.0 17.7 0.00 0.00 0.00 1 1012.0
20260507130527 -17 315 8.0 22.5 0.00 0.00 0.00 1 1012.0
20260507125542 -17 315 9.7 24.1 0.00 0.00 0.00 1 1012.1
20260507124516 -17 315 6.4 22.5 0.00 0.00 0.00 1 1012.0
20260507123610 -17 315 8.0 17.7 0.00 0.00 0.00 1 1012.1
20260507122604 -17 315 8.0 14.5 0.00 0.00 0.00 1 1012.2
20260507121557 -17 315 8.0 24.1 0.00 0.00 0.00 1 1012.2
20260507120552 -17 315 9.7 17.7 0.00 0.00 0.00 1 1012.2
20260507115548 -17 315 4.8 11.3 0.00 0.00 0.00 1 1012.2
20260507114541 -17 315 6.4 14.5 0.00 0.00 0.00 1 1012.2
20260507113536 -17 315 4.8 9.7 0.00 0.00 0.00 1 1012.3
20260507112530 -17 315 4.8 12.9 0.00 0.00 0.00 1 1012.4
20260507111526 -17 315 3.2 11.3 0.00 0.00 0.00 1 1012.6
20260507110519 -17 315 4.8 14.5 0.00 0.00 0.00 1 1012.7
20260507105515 -17 315 6.4 14.5 0.00 0.00 0.00 1 1012.8
20260507104611 -17 315 4.8 11.3 0.00 0.00 0.00 1 1012.7
20260507103605 -17 315 3.2 11.3 0.00 0.00 0.00 1 1012.9
20260507102601 -17 315 3.2 9.7 0.00 0.00 0.00 1 1013.0
20260507101556 -17 315 4.8 11.3 0.00 0.00 0.00 1 1013.1
20260507100550 -17 315 1.6 6.4 0.00 0.00 0.00 1 1013.2
20260507095544 -17 315 8.0 14.5 0.00 0.00 0.00 1 1013.2
20260507094541 -17 315 3.2 9.7 0.00 0.00 0.00 1 1013.2
20260507093535 -17 315 3.2 14.5 0.00 0.00 0.00 1 1013.4
20260507092530 -17 315 1.6 6.4 0.00 0.00 0.00 1 1013.3
20260507091526 -17 315 1.6 6.4 0.00 0.00 0.00 1 1013.3
20260507090520 -17 315 4.8 11.3 0.00 0.00 0.00 1 1013.0
20260507085535 -17 315 3.2 6.4 0.00 0.00 0.00 1 1013.1
20260507084610 -17 315 4.8 11.3 0.00 0.00 0.00 1 1013.1
20260507083605 -17 315 6.4 12.9 0.00 0.00 0.00 1 1013.2
20260507082600 -17 315 3.2 11.3 0.00 0.00 0.00 1 1013.2
20260507081555 -17 315 6.4 14.5 0.00 0.00 0.00 1 1013.3
20260507080629 -17 315 3.2 11.3 0.00 0.00 0.00 1 1013.4
20260507075544 -17 315 1.6 6.4 0.00 0.00 0.00 1 1013.4
20260507074539 -17 315 3.2 9.7 0.00 0.00 0.00 1 1013.5
20260507073534 -17 315 1.6 6.4 0.00 0.00 0.00 1 1013.6
20260507072527 -17 315 3.2 6.4 0.00 0.00 0.00 1 1013.6
20260507071521 -17 315 3.2 9.7 0.00 0.00 0.00 1 1013.5
20260507070616 -17 315 0.0 3.2 0.00 0.00 0.00 1 1013.5
20260507065609 -17 315 1.6 6.4 0.00 0.00 0.00 1 1013.2
20260507064606 -17 315 1.6 6.4 0.00 0.00 0.00 1 1013.0
20260507063559 -17 315 1.6 3.2 0.00 0.00 0.00 1 1013.1
20260507062554 -17 315 1.6 3.2 0.00 0.00 0.00 1 1012.9
20260507061547 -17 315 1.6 3.2 0.00 0.00 0.00 1 1012.7
20260507060543 -17 0.0 0.0 0.00 0.00 0.00 1 1012.7
20260507055537 -17 315 0.0 3.2 0.00 0.00 0.00 1 1012.7
20260507054533 -17 315 0.0 3.2 0.00 0.00 0.00 1 1012.6
20260507053527 -17 0.0 0.0 0.00 0.00 0.00 1 1012.6
20260507052520 -17 315 0.0 3.2 0.00 0.00 0.00 1 1012.4
20260507051535 -17 315 1.6 3.2 0.00 0.00 0.00 1 1012.3
20260507050610 -17 315 1.6 3.2 0.00 0.00 0.00 1 1012.2
20260507045606 -17 315 0.0 3.2 0.00 0.00 0.00 1 1012.2
20260507044559 -17 0.0 0.0 0.00 0.00 0.00 1 1012.1
20260507043555 -17 315 1.6 3.2 0.00 0.00 0.00 1 1012.2
20260507042548 -17 315 1.6 3.2 0.00 0.00 0.00 1 1012.2
20260507041542 -17 315 1.6 3.2 0.00 0.00 0.00 1 1012.3
20260507040539 -17 315 1.6 3.2 0.00 0.00 0.00 1 1012.4
20260507035554 -17 315 1.6 3.2 0.00 0.00 0.00 1 1012.3
20260507034549 -17 0.0 3.2 0.00 0.00 0.00 1 1012.2
20260507033522 -17 0.0 0.0 0.00 0.00 0.00 1 1012.3
20260507032537 -17 315 0.0 3.2 0.00 0.00 0.00 1 1012.4
20260507031632 -17 0.0 0.0 0.00 0.00 0.00 1 1012.4
20260507030607 -17 0.0 3.2 0.00 0.00 0.00 1 1012.3
20260507025623 -17 315 1.6 3.2 0.00 0.00 0.00 1 1012.4
20260507024558 -17 315 1.6 6.4 0.00 0.00 0.00 1 1012.2
20260507023551 -17 315 3.2 9.7 0.00 0.00 0.00 1 1012.2
20260507022546 -17 315 3.2 6.4 0.00 0.00 0.00 1 1012.2
20260507021541 -17 315 3.2 6.4 0.00 0.00 0.00 1 1012.3
20260507020537 -17 315 3.2 6.4 0.00 0.00 0.00 1 1012.2
20260507015531 -17 315 3.2 6.4 0.00 0.00 0.00 1 1012.3
20260507014547 -17 315 4.8 11.3 0.00 0.00 0.00 1 1012.6
20260507013545 -17 315 4.8 9.7 0.00 0.00 0.00 1 1012.6
20260507012519 -17 315 6.4 9.7 0.00 0.00 0.00 1 1012.5
20260507011612 -17 315 4.8 9.7 0.00 0.00 0.00 1 1012.4
20260507010608 -17 315 6.4 11.3 0.00 0.00 0.00 1 1012.5
20260507005601 -17 315 4.8 11.3 0.00 0.00 0.00 1 1012.6
20260507004558 -17 315 4.8 9.7 0.00 0.00 0.00 1 1012.8
20260507003552 -17 315 4.8 6.4 0.00 0.00 0.00 1 1012.7
20260507002547 -17 315 3.2 6.4 0.00 0.00 0.00 1 1012.7
20260507001542 -17 315 4.8 11.3 0.00 0.00 0.00 1 1012.8
20260507000538 -17 315 4.8 6.4 0.00 0.00 0.00 1 1012.9
20260506235533 -17 315 4.8 11.3 0.00 0.00 0.00 1 1013.0
20260506234528 -17 315 4.8 11.3 0.00 0.00 0.00 1 1012.9
20260506233523 -17 315 4.8 12.9 0.00 0.00 0.00 1 1012.9
20260506232538 -17 315 6.4 9.7 0.00 0.00 0.00 1 1012.8
20260506231612 -17 315 4.8 9.7 0.00 0.00 0.00 1 1013.0
20260506230607 -17 5 4.8 9.7 0.00 0.00 0.00 1 1013.0
20260506225603 -17 349 6.4 11.3 0.00 0.00 0.00 1 1012.9